FW9086 Weather Reports


Display with metric or nautical units.
time (UTC)temp
F
wind
direction
speed
MPH
gust
MPH
rain 1hr
in
rain 24hr
in
rain mn
in
humidity
%
barometer
mb
20260831194859 90 247 1.0 2.0 0.00 0.00 0.00 63 1015.4
20260831194354 90 296 3.0 3.0 0.00 0.00 0.00 65 1015.4
20260831193853 90 284 3.0 3.0 0.00 0.00 0.00 61 1015.6
20260831193348 91 243 1.0 2.0 0.00 0.00 0.00 61 1015.6
20260831192843 91 239 3.0 5.0 0.00 0.00 0.00 61 1015.6
20260831192338 91 194 1.0 1.0 0.00 0.00 0.00 59 1015.9
20260831191834 91 189 2.0 3.0 0.00 0.00 0.00 62 1016.0
20260831191330 90 177 4.0 5.0 0.00 0.00 0.00 62 1015.8
20260831190826 89 233 2.0 2.0 0.00 0.00 0.00 62 1015.9
20260831190325 89 249 4.0 5.0 0.00 0.00 0.00 67 1016.0
20260831185825 89 251 2.0 2.0 0.00 0.00 0.00 65 1015.9
20260831185321 89 246 1.0 2.0 0.00 0.00 0.00 65 1016.2
20260831184820 89 249 3.0 5.0 0.00 0.00 0.00 61 1016.2
20260831184315 89 290 2.0 2.0 0.00 0.00 0.00 64 1016.1
20260831183811 89 237 3.0 5.0 0.00 0.00 0.00 65 1016.4
20260831183310 89 235 3.0 3.0 0.00 0.00 0.00 67 1016.4
20260831182809 88 251 3.0 3.0 0.00 0.00 0.00 66 1016.2
20260831182309 89 263 3.0 3.0 0.00 0.00 0.00 69 1016.4
20260831181805 89 193 1.0 1.0 0.00 0.00 0.00 70 1016.3
20260831181300 88 223 2.0 2.0 0.00 0.00 0.00 65 1016.2
20260831180755 88 240 3.0 3.0 0.00 0.00 0.00 66 1016.6
20260831180249 89 263 5.0 6.0 0.00 0.00 0.00 66 1016.4
20260831175748 89 257 2.0 2.0 0.00 0.00 0.00 64 1016.5
20260831175246 88 227 1.0 2.0 0.00 0.00 0.00 68 1016.6
20260831174746 88 276 3.0 3.0 0.00 0.00 0.00 67 1016.3
20260831174242 89 230 2.0 2.0 0.00 0.00 0.00 67 1016.5
20260831173741 89 231 3.0 3.0 0.00 0.00 0.00 67 1016.3
20260831173235 89 192 2.0 2.0 0.00 0.00 0.00 66 1016.5
20260831172730 88 234 3.0 3.0 0.00 0.00 0.00 70 1016.5
20260831172225 88 283 3.0 5.0 0.00 0.00 0.00 70 1016.6
20260831171720 88 231 2.0 2.0 0.00 0.00 0.00 71 1016.7
20260831171218 89 236 1.0 1.0 0.00 0.00 0.00 72 1016.7
20260831170714 88 270 3.0 3.0 0.00 0.00 0.00 69 1016.7
20260831170210 88 264 4.0 5.0 0.00 0.00 0.00 70 1016.7
20260831165706 89 274 4.0 6.0 0.00 0.00 0.00 71 1016.7
20260831165202 89 257 2.0 2.0 0.00 0.00 0.00 69 1016.7
20260831164658 89 245 2.0 3.0 0.00 0.00 0.00 71 1017.0
20260831164154 89 211 1.0 1.0 0.00 0.00 0.00 72 1017.0
20260831163649 88 202 0.0 1.0 0.00 0.00 0.00 72 1017.0
20260831163144 88 243 2.0 2.0 0.00 0.00 0.00 73 1017.0
20260831162643 88 170 2.0 3.0 0.00 0.00 0.00 75 1017.0
20260831162141 87 210 3.0 3.0 0.00 0.00 0.00 74 1017.1
20260831161637 87 225 3.0 3.0 0.00 0.00 0.00 76 1017.1
20260831161134 87 243 2.0 2.0 0.00 0.00 0.00 76 1017.2
20260831160633 86 203 2.0 2.0 0.00 0.00 0.00 74 1016.8
20260831160128 86 219 2.0 2.0 0.00 0.00 0.00 75 1017.1
20260831155628 86 218 1.0 1.0 0.00 0.00 0.00 78 1017.3
20260831155123 85 241 2.0 2.0 0.00 0.00 0.00 76 1017.1
20260831154619 84 221 2.0 2.0 0.00 0.00 0.00 76 1017.0
20260831154114 85 206 2.0 2.0 0.00 0.00 0.00 78 1017.2
20260831153613 85 192 1.0 1.0 0.00 0.00 0.00 77 1017.1
20260831153110 84 193 1.0 1.0 0.00 0.00 0.00 77 1017.1
20260831152605 84 232 3.0 3.0 0.00 0.00 0.00 74 1017.3
20260831152101 85 261 2.0 2.0 0.00 0.00 0.00 78 1017.1
20260831151600 85 255 3.0 3.0 0.00 0.00 0.00 76 1017.1
20260831151055 85 244 2.0 2.0 0.00 0.00 0.00 78 1016.8
20260831150550 85 171 0.0 1.0 0.00 0.00 0.00 77 1016.8
20260831150046 85 175 1.0 1.0 0.00 0.00 0.00 80 1016.8
20260831145540 85 227 2.0 2.0 0.00 0.00 0.00 77 1017.0
20260831145036 84 212 2.0 3.0 0.00 0.00 0.00 79 1016.6
20260831144532 84 257 3.0 3.0 0.00 0.00 0.00 79 1016.6
20260831144027 83 177 1.0 2.0 0.00 0.00 0.00 80 1016.5
20260831143521 82 228 1.0 2.0 0.00 0.00 0.00 80 1016.7
20260831143017 82 197 1.0 1.0 0.00 0.00 0.00 81 1016.7
20260831142514 81 179 1.0 1.0 0.00 0.00 0.00 84 1016.6
20260831142008 81 207 1.0 2.0 0.00 0.00 0.00 84 1016.5
20260831141502 80 199 1.0 1.0 0.00 0.00 0.00 87 1016.6
20260831140957 79 185 1.0 1.0 0.00 0.00 0.00 86 1016.6
20260831140456 78 166 0.0 0.0 0.00 0.00 0.00 88 1016.5
20260831135955 78 201 2.0 2.0 0.00 0.00 0.00 88 1016.5
20260831135454 78 174 1.0 1.0 0.00 0.00 0.00 89 1016.7
20260831134949 78 160 0.0 1.0 0.00 0.00 0.00 89 1016.8
20260831134446 78 175 0.0 0.0 0.00 0.00 0.00 89 1016.7
20260831133945 77 154 0.0 0.0 0.00 0.00 0.00 91 1016.7
20260831133440 76 209 0.0 1.0 0.00 0.00 0.00 92 1016.4
20260831132935 75 184 0.0 0.0 0.00 0.00 0.00 93 1016.4
20260831132431 75 200 0.0 1.0 0.00 0.00 0.00 93 1016.5
20260831131930 74 158 0.0 0.0 0.00 0.00 0.00 95 1016.4
20260831131425 74 160 0.0 0.0 0.00 0.00 0.00 96 1016.4
20260831130921 73 158 0.0 0.0 0.00 0.00 0.00 96 1016.6
20260831130416 73 166 0.0 0.0 0.00 0.00 0.00 97 1016.5
20260831125915 73 156 0.0 0.0 0.00 0.00 0.00 97 1016.4
20260831125411 72 158 0.0 0.0 0.00 0.00 0.00 98 1016.2
20260831124906 72 170 0.0 0.0 0.00 0.00 0.00 98 1016.3
20260831124402 71 156 0.0 0.0 0.00 0.00 0.00 99 1016.3
20260831123857 71 167 0.0 0.0 0.00 0.00 0.00 99 1016.1
20260831123356 71 147 0.0 0.0 0.00 0.00 0.00 99 1016.2
20260831122856 70 152 0.0 0.0 0.00 0.00 0.00 99 1016.0
20260831122351 70 158 0.0 0.0 0.00 0.00 0.00 99 1016.1
20260831121846 70 155 0.0 0.0 0.00 0.00 0.00 99 1016.0
20260831121342 70 156 0.0 0.0 0.00 0.00 0.00 99 1016.0
20260831120838 69 155 0.0 0.0 0.00 0.00 0.00 99 1016.0
20260831120332 69 159 0.0 0.0 0.00 0.00 0.00 99 1016.0
20260831115827 69 146 0.0 0.0 0.00 0.00 0.00 99 1016.1
20260831115324 69 154 0.0 0.0 0.00 0.00 0.00 99 1016.0
20260831114823 69 163 0.0 0.0 0.00 0.00 0.00 99 1016.0
20260831114321 69 177 0.0 0.0 0.00 0.00 0.00 99 1015.8
20260831113812 69 156 0.0 0.0 0.00 0.00 0.00 99 1015.9
20260831113312 69 149 0.0 0.0 0.00 0.00 0.00 99 1016.1
20260831112806 69 152 0.0 0.0 0.00 0.00 0.00 99 1016.1
20260831112301 69 149 0.0 0.0 0.00 0.00 0.00 99 1016.1
20260831111756 69 146 0.0 0.0 0.00 0.00 0.00 99 1016.1
20260831111253 69 146 0.0 0.0 0.00 0.00 0.00 99 1015.9
20260831110749 70 150 0.0 0.0 0.00 0.00 0.00 99 1016.0
20260831110243 69 149 0.0 0.0 0.00 0.00 0.00 99 1016.0
20260831105741 69 147 0.0 0.0 0.00 0.00 0.00 99 1015.8
20260831105237 70 147 0.0 0.0 0.00 0.00 0.00 99 1015.9
20260831104732 70 146 0.0 0.0 0.00 0.00 0.00 99 1015.9
20260831104229 70 147 0.0 0.0 0.00 0.00 0.00 99 1015.7
20260831103729 70 147 0.0 0.0 0.00 0.00 0.00 99 1015.8
20260831103224 70 147 0.0 0.0 0.00 0.00 0.00 99 1016.0
20260831102724 70 147 0.0 0.0 0.00 0.00 0.00 99 1015.6
20260831102219 70 146 0.0 0.0 0.00 0.00 0.00 99 1015.6
20260831101714 70 146 0.0 0.0 0.00 0.00 0.00 99 1015.5
20260831101210 70 146 0.0 0.0 0.00 0.00 0.00 99 1015.3
20260831100706 70 147 0.0 0.0 0.00 0.00 0.00 99 1015.4
20260831100202 70 147 0.0 0.0 0.00 0.00 0.00 99 1015.3
20260831095659 70 147 0.0 0.0 0.00 0.00 0.00 99 1015.6
20260831095155 70 147 0.0 0.0 0.00 0.00 0.00 98 1015.7
20260831094650 70 146 0.0 0.0 0.00 0.00 0.00 98 1015.4
20260831094146 70 151 0.0 0.0 0.00 0.00 0.00 98 1015.5
20260831093642 71 166 0.0 0.0 0.00 0.00 0.00 98 1015.4
20260831093137 71 163 0.0 0.0 0.00 0.00 0.00 98 1015.4
20260831092634 71 185 0.0 1.0 0.00 0.00 0.00 98 1015.4
20260831092129 71 155 0.0 0.0 0.00 0.00 0.00 98 1015.6
20260831091628 71 151 0.0 0.0 0.00 0.00 0.00 98 1015.5
20260831091124 71 151 0.0 0.0 0.00 0.00 0.00 98 1015.7
20260831090619 71 151 0.0 0.0 0.00 0.00 0.00 98 1015.7
20260831090115 71 144 0.0 0.0 0.00 0.00 0.00 98 1015.7
20260831085610 71 144 0.0 0.0 0.00 0.00 0.00 98 1015.6
20260831085106 71 144 0.0 0.0 0.00 0.00 0.00 98 1015.4
20260831084601 71 144 0.0 0.0 0.00 0.00 0.00 98 1015.4
20260831084057 71 155 0.0 0.0 0.00 0.00 0.00 97 1015.5
20260831083553 71 155 0.0 0.0 0.00 0.00 0.00 97 1015.2
20260831083048 71 155 0.0 0.0 0.00 0.00 0.00 97 1015.3
20260831082547 71 155 0.0 0.0 0.00 0.00 0.00 97 1015.5
20260831082043 72 151 0.0 0.0 0.00 0.00 0.00 97 1015.4
20260831081538 72 151 0.0 0.0 0.00 0.00 0.00 96 1015.4
20260831081029 72 147 0.0 0.0 0.00 0.00 0.00 96 1015.5
20260831080528 72 147 0.0 0.0 0.00 0.00 0.00 96 1015.4
20260831080024 72 144 0.0 0.0 0.00 0.00 0.00 96 1015.3
20260831075519 72 140 0.0 0.0 0.00 0.00 0.00 96 1015.3
20260831075015 72 141 0.0 0.0 0.00 0.00 0.00 95 1015.1
20260831074515 72 144 0.0 0.0 0.00 0.00 0.00 95 1015.1
20260831074014 72 144 0.0 0.0 0.00 0.00 0.00 95 1015.3
20260831073509 72 146 0.0 0.0 0.00 0.00 0.00 95 1015.1
20260831073008 72 155 0.0 0.0 0.00 0.00 0.00 94 1015.0
20260831072504 72 155 0.0 0.0 0.00 0.00 0.00 94 1015.1
20260831072000 72 157 0.0 0.0 0.00 0.00 0.00 95 1015.1
20260831071459 72 157 0.0 0.0 0.00 0.00 0.00 95 1015.2
20260831070954 72 151 0.0 0.0 0.00 0.00 0.00 94 1014.9
20260831070452 72 150 0.0 0.0 0.00 0.00 0.00 94 1015.0
20260831065952 72 147 0.0 0.0 0.00 0.00 0.00 94 1015.0
20260831065451 72 142 0.0 0.0 0.00 0.00 0.00 94 1015.1
20260831064945 72 145 0.0 0.0 0.00 0.00 0.00 94 1014.9
20260831064441 73 147 0.0 0.0 0.00 0.00 0.00 94 1015.1
20260831063936 73 147 0.0 0.0 0.00 0.00 0.00 94 1015.0
20260831063431 73 144 0.0 0.0 0.00 0.00 0.00 94 1014.9
20260831062925 73 144 0.0 0.0 0.00 0.00 0.00 94 1015.0
20260831062421 73 142 0.0 0.0 0.00 0.00 0.00 94 1015.2
20260831061920 73 151 0.0 0.0 0.00 0.00 0.00 94 1015.4
20260831061419 73 147 0.0 0.0 0.00 0.00 0.00 94 1015.4
20260831060915 73 157 0.0 0.0 0.00 0.00 0.00 94 1015.6
20260831060410 73 155 0.0 0.0 0.00 0.00 0.00 94 1015.4
20260831055909 73 160 0.0 0.0 0.00 0.00 0.00 94 1015.4
20260831055404 73 171 0.0 1.0 0.00 0.00 0.00 95 1015.4
20260831054900 73 147 0.0 0.0 0.00 0.00 0.00 94 1015.3
20260831054354 73 148 0.0 0.0 0.00 0.00 0.00 94 1015.3
20260831053854 73 144 0.0 0.0 0.00 0.00 0.00 94 1015.6
20260831053352 73 166 0.0 0.0 0.00 0.00 0.00 94 1015.7
20260831052847 74 167 0.0 0.0 0.00 0.00 0.00 94 1015.8
20260831052346 74 151 0.0 0.0 0.00 0.00 0.00 93 1016.0
20260831051844 74 151 0.0 0.0 0.00 0.00 0.00 92 1016.2
20260831051343 73 151 0.0 0.0 0.00 0.00 0.00 91 1016.1
20260831050838 73 151 0.0 0.0 0.00 0.00 0.00 90 1015.8
20260831050337 74 151 0.0 0.0 0.00 0.00 0.00 90 1015.9
20260831045832 74 150 0.0 0.0 0.00 0.00 0.00 90 1015.9
20260831045326 74 150 0.0 0.0 0.00 0.00 0.00 90 1015.8
20260831044821 74 149 0.0 0.0 0.00 0.00 0.00 90 1015.8
20260831044316 74 147 0.0 0.0 0.00 0.00 0.00 90 1015.8
20260831043812 74 166 0.0 0.0 0.00 0.00 0.00 90 1015.9
20260831043312 74 168 0.0 0.0 0.00 0.00 0.00 91 1015.7
20260831042807 74 163 0.0 0.0 0.00 0.00 0.00 91 1015.8
20260831042307 74 146 0.0 0.0 0.00 0.00 0.00 91 1015.7
20260831041802 73 148 0.0 0.0 0.00 0.00 0.00 91 1015.4
20260831041301 73 148 0.0 0.0 0.00 0.00 0.00 91 1015.6
20260831040756 73 147 0.0 0.0 0.00 0.00 0.00 92 1015.4
20260831040255 73 155 0.0 0.0 0.00 0.00 0.00 92 1015.6
20260831035754 73 166 0.0 0.0 0.00 0.00 0.00 93 1015.4
20260831035253 74 140 0.0 0.0 0.00 0.00 0.00 92 1015.4
20260831034752 74 157 0.0 0.0 0.00 0.00 0.00 93 1015.3
20260831034248 74 157 0.0 0.0 0.00 0.00 0.00 91 1015.2
20260831033743 74 155 0.0 0.0 0.00 0.00 0.00 90 1015.4
20260831033243 74 151 0.0 0.0 0.00 0.00 0.00 89 1015.4
20260831032738 74 152 0.0 0.0 0.00 0.00 0.00 89 1015.2
20260831032233 74 152 0.0 0.0 0.00 0.00 0.00 89 1015.3
20260831031728 74 154 0.0 0.0 0.00 0.00 0.00 90 1015.4
20260831031223 74 155 0.0 0.0 0.00 0.00 0.00 90 1015.4
20260831030722 74 155 0.0 0.0 0.00 0.00 0.00 89 1015.6
20260831030221 75 155 0.0 0.0 0.00 0.00 0.00 88 1015.6
20260831025720 75 155 0.0 0.0 0.00 0.00 0.00 87 1015.8
20260831025214 75 155 0.0 0.0 0.00 0.00 0.00 87 1015.9
20260831024711 75 155 0.0 0.0 0.00 0.00 0.00 87 1015.6
20260831024209 75 155 0.0 0.0 0.00 0.00 0.00 88 1015.7
20260831023708 74 151 0.0 0.0 0.00 0.00 0.00 87 1015.7
20260831023207 74 148 0.0 0.0 0.00 0.00 0.00 88 1015.8
20260831022703 75 149 0.0 0.0 0.00 0.00 0.00 88 1015.8
20260831022157 75 148 0.0 0.0 0.00 0.00 0.00 88 1015.6
20260831021656 75 156 0.0 0.0 0.00 0.00 0.00 89 1015.9
20260831021152 75 156 0.0 0.0 0.00 0.00 0.00 89 1015.7
20260831020648 75 155 0.0 0.0 0.00 0.00 0.00 87 1015.8
20260831020142 75 155 0.0 0.0 0.00 0.00 0.00 86 1015.8
20260831015638 75 155 0.0 0.0 0.00 0.00 0.00 86 1015.6
20260831015137 76 155 0.0 0.0 0.00 0.00 0.00 86 1015.7
20260831014632 76 155 0.0 0.0 0.00 0.00 0.00 85 1015.7
20260831014127 76 155 0.0 0.0 0.00 0.00 0.00 84 1015.6
20260831013624 76 155 0.0 0.0 0.00 0.00 0.00 84 1015.6
20260831013123 76 156 0.0 0.0 0.00 0.00 0.00 84 1015.6
20260831012618 76 154 0.0 0.0 0.00 0.00 0.00 83 1015.4
20260831012113 77 154 0.0 0.0 0.00 0.00 0.00 83 1015.4
20260831011612 77 154 0.0 0.0 0.00 0.00 0.00 83 1015.3
20260831011108 77 154 0.0 0.0 0.00 0.00 0.00 83 1015.3
20260831010604 77 154 0.0 0.0 0.00 0.00 0.00 83 1015.0
20260831010100 77 154 0.0 0.0 0.00 0.00 0.00 83 1015.3
20260831005559 77 154 0.0 0.0 0.00 0.00 0.00 83 1015.1
20260831005054 77 156 0.0 0.0 0.00 0.00 0.00 83 1015.1
20260831004550 77 156 0.0 0.0 0.00 0.00 0.00 82 1015.1
20260831004045 77 156 0.0 0.0 0.00 0.00 0.00 82 1015.2
20260831003542 78 156 0.0 0.0 0.00 0.00 0.00 81 1015.0
20260831003037 78 156 0.0 0.0 0.00 0.00 0.00 80 1015.2
20260831002536 78 156 0.0 0.0 0.00 0.00 0.00 79 1015.1
20260831002031 79 156 0.0 0.0 0.00 0.00 0.00 79 1015.3
20260831001526 79 152 0.0 0.0 0.00 0.00 0.00 78 1015.0
20260831001023 79 151 0.0 0.0 0.00 0.00 0.00 78 1015.2
20260831000519 79 151 0.0 0.0 0.00 0.00 0.00 77 1014.9
20260831000018 80 146 0.0 0.0 0.00 0.00 0.00 76 1015.1
20260830235518 80 157 0.0 0.0 0.00 0.00 0.00 75 1015.1
20260830235013 80 155 0.0 0.0 0.00 0.00 0.00 75 1015.2
20260830234508 80 155 0.0 0.0 0.00 0.00 0.00 75 1015.0
20260830234003 80 147 0.0 0.0 0.00 0.00 0.00 75 1015.3
20260830233459 81 143 0.0 0.0 0.00 0.00 0.00 75 1015.3
20260830232954 81 147 0.0 0.0 0.00 0.00 0.00 75 1015.0
20260830232450 81 156 0.0 0.0 0.00 0.00 0.00 74 1015.1
20260830231946 82 156 0.0 0.0 0.00 0.00 0.00 75 1015.3
20260830231442 82 169 0.0 0.0 0.00 0.00 0.00 74 1015.3
20260830230941 82 162 0.0 0.0 0.00 0.00 0.00 73 1015.3
20260830230436 82 152 0.0 0.0 0.00 0.00 0.00 73 1015.3
20260830225935 82 150 0.0 0.0 0.00 0.00 0.00 73 1015.3
20260830225431 82 151 0.0 0.0 0.00 0.00 0.00 73 1015.3
20260830224926 82 156 0.0 0.0 0.00 0.00 0.00 73 1015.2
20260830224424 82 174 0.0 1.0 0.00 0.00 0.00 72 1015.1
20260830223921 83 154 0.0 0.0 0.00 0.00 0.00 72 1015.2
20260830223418 83 132 0.0 0.0 0.00 0.00 0.00 73 1015.0
20260830222916 83 151 0.0 0.0 0.00 0.00 0.00 72 1015.1
20260830222412 83 162 0.0 0.0 0.00 0.00 0.00 71 1015.0
20260830221908 84 179 1.0 1.0 0.00 0.00 0.00 72 1014.9
20260830221404 84 183 0.0 0.0 0.00 0.00 0.00 71 1015.0
20260830220859 84 192 1.0 2.0 0.00 0.00 0.00 67 1015.0
20260830220359 85 159 0.0 0.0 0.00 0.00 0.00 71 1014.9
20260830215856 85 172 1.0 1.0 0.00 0.00 0.00 67 1014.8
20260830215356 85 166 0.0 1.0 0.00 0.00 0.00 68 1014.9
20260830214851 85 181 0.0 1.0 0.00 0.00 0.00 68 1014.9
20260830214346 85 237 1.0 2.0 0.00 0.00 0.00 67 1015.0
20260830213841 86 195 1.0 1.0 0.00 0.00 0.00 69 1014.7
20260830213336 86 166 0.0 0.0 0.00 0.00 0.00 70 1014.7
20260830212832 86 174 0.0 0.0 0.00 0.00 0.00 70 1014.7
20260830212328 86 119 0.0 1.0 0.00 0.00 0.00 68 1014.8
20260830211826 84 152 0.0 0.0 0.00 0.00 0.00 74 1015.0
20260830211321 84 159 0.0 0.0 0.00 0.00 0.00 72 1014.8
20260830210817 85 159 1.0 2.0 0.00 0.00 0.00 66 1015.2
20260830210316 85 195 0.0 0.0 0.00 0.00 0.00 69 1014.8
20260830205814 85 174 0.0 0.0 0.00 0.00 0.00 73 1015.1
20260830205314 85 155 0.0 0.0 0.00 0.00 0.00 70 1015.2
20260830204809 86 155 0.0 0.0 0.00 0.00 0.00 68 1015.1
20260830204308 86 178 0.0 1.0 0.00 0.00 0.00 66 1015.1
20260830203804 85 204 1.0 1.0 0.00 0.00 0.00 66 1015.2
20260830203300 83 184 0.0 0.0 0.00 0.00 0.00 68 1015.3
20260830202759 82 194 0.0 1.0 0.00 0.00 0.00 73 1015.5
20260830202255 83 178 0.0 0.0 0.00 0.00 0.00 75 1015.4
20260830201754 83 182 1.0 1.0 0.00 0.00 0.00 70 1015.5
20260830201249 84 185 0.0 0.0 0.00 0.00 0.00 70 1015.8
20260830200745 84 177 1.0 1.0 0.00 0.00 0.00 73 1015.9
20260830200244 84 188 1.0 1.0 0.00 0.00 0.00 67 1015.7
20260830195740 85 185 0.0 1.0 0.00 0.00 0.00 67 1015.7